STARLINK-11279 [DTC]

Last updated on Mon Oct 21 2024 00:02:04 GMT+0000 (Coordinated Universal Time)

1 61206U 24171G 24293.90940784 .00002298 00000+0 18023-4 0 9999 2 61206 53.1549 150.0663 0000619 78.0881 282.0209 15.76737426 4952
UTC large
Height (km)
Speed (km/s)
/
Latitude / Longitude
Inclination (degrees)
Orbital Period (minutes)
Azimuth
Elevation
Range (km)
Doppler Factor

Next 0 passes for location: London (51.5072 / 0.1276)

Sorry there are no passes over London.